Theta_e
330 329 328 332 326 321 324 323 317 320 328 324 313 311 314 312 312 314 313 314 320 324 330 336 337 335 336 336 336 337 339 341 344 349 354 352 350 351 352 355 352 352 359 361 361 361 355 350 348 347 349 350 347 346 348 347 345 343 341 339 338 338 337
330 329 328 331 329 327 322 317 319 327 329 327 318 312 313 313 312 313 312 312 315 315 320 330 337 334 333 336 336 335 340 345 347 349 351 353 352 351 353 355 355 355 359 359 361 359 353 349 347 348 350 350 347 347 348 347 345 344 342 340 339 339 339
328 331 327 325 327 331 327 322 328 327 317 316 317 313 313 314 313 314 312 312 313 312 317 329 334 334 335 335 336 335 335 341 346 348 350 353 352 351 353 355 354 355 357 359 362 358 352 348 347 349 352 349 346 347 348 346 345 344 343 341 341 340 340
329 329 324 318 320 327 329 329 330 327 319 317 316 314 314 313 313 314 313 312 313 317 325 332 334 335 335 334 337 336 334 337 343 346 349 352 352 353 354 354 354 355 356 358 360 356 349 347 347 351 351 347 345 346 346 345 345 345 344 342 342 341 341
324 321 322 321 320 324 323 321 320 322 321 320 319 318 316 314 312 312 313 312 313 323 333 334 335 336 333 334 337 336 335 335 337 343 348 352 356 355 355 354 354 356 357 358 357 353 348 347 349 349 347 344 343 344 345 344 345 345 344 343 343 342 341
317 320 328 329 327 327 325 320 319 320 320 318 316 316 315 314 312 311 313 312 313 326 336 334 334 334 333 335 336 335 337 336 335 341 346 353 357 356 355 355 353 353 357 357 353 349 347 347 347 347 345 344 341 344 345 343 343 344 342 343 344 343 342
322 327 331 328 328 330 330 328 326 326 325 317 312 311 313 313 313 314 313 311 316 331 336 334 334 335 333 335 335 335 336 337 337 341 345 352 358 358 356 353 351 351 354 354 351 347 345 347 348 346 344 344 341 343 343 342 341 341 340 343 345 345 344
327 329 329 329 329 329 327 327 329 329 327 323 320 318 318 315 313 314 314 310 318 335 338 334 336 336 335 335 336 336 335 335 337 341 348 355 361 361 356 351 350 350 351 351 348 346 347 349 348 346 345 344 342 342 341 340 339 339 338 338 341 344 344
318 320 324 323 325 326 324 327 329 329 328 328 327 324 322 318 314 315 315 311 318 338 344 338 337 337 334 334 335 335 336 335 336 342 351 359 364 363 358 353 351 350 350 351 349 348 349 350 349 348 345 345 342 341 340 338 338 339 339 337 337 341 342
312 313 315 316 320 323 324 327 328 330 329 327 324 319 317 315 315 317 315 312 321 339 345 338 336 337 335 336 334 334 337 337 338 343 351 360 365 365 362 358 354 352 354 352 351 351 350 352 350 348 346 345 344 342 340 337 337 338 339 339 339 340 340
315 314 319 326 325 322 318 321 325 327 329 329 326 317 313 315 317 314 316 318 321 332 340 338 337 337 337 336 336 335 336 337 338 345 352 360 366 366 364 361 356 357 356 353 353 352 352 353 351 348 348 347 344 343 339 337 337 336 338 340 340 340 339
323 325 329 331 329 322 319 320 322 324 328 328 324 316 317 322 316 311 322 328 321 325 336 336 334 336 337 337 336 336 337 337 337 343 351 359 364 365 365 363 359 360 357 354 355 355 356 355 351 351 351 348 347 345 341 337 336 337 338 340 341 342 339
328 331 330 330 329 326 325 324 323 324 326 326 322 320 325 328 317 315 329 336 326 329 335 334 333 335 335 336 336 336 335 338 337 339 348 356 360 363 366 364 362 362 359 358 360 360 359 355 352 353 352 351 349 346 341 339 337 338 340 342 343 342 340
326 329 328 329 329 326 325 326 327 329 328 327 326 326 329 330 324 326 336 335 333 335 336 334 334 338 336 337 337 334 334 335 335 337 345 352 354 360 365 366 364 362 362 362 362 362 359 355 353 353 352 351 348 343 340 338 339 339 341 343 344 342 340
319 327 329 327 328 327 323 323 327 329 328 327 327 327 328 328 327 330 335 330 331 337 338 334 335 339 340 338 336 335 336 335 334 337 342 347 352 355 360 364 364 363 363 363 363 362 358 354 354 353 352 351 346 341 338 338 339 341 342 344 344 342 340
315 325 327 324 328 326 320 319 324 325 324 324 326 328 330 328 326 329 328 324 328 336 336 334 336 338 339 336 334 337 337 336 337 340 343 346 349 352 356 362 364 364 363 364 364 362 358 355 355 353 351 349 342 340 337 337 339 342 342 343 343 343 341
315 323 325 324 324 319 314 318 325 327 327 327 327 329 332 333 331 329 325 326 333 338 334 334 336 335 334 335 334 337 339 340 341 344 346 346 345 349 354 359 363 363 362 363 365 363 359 355 356 352 347 343 339 340 338 338 340 341 341 340 341 343 342
315 321 324 323 320 314 316 326 330 331 331 329 328 329 330 335 336 333 331 332 336 334 333 335 336 334 335 334 335 338 340 341 343 344 346 346 346 349 354 356 359 361 361 363 362 362 360 357 355 349 339 335 338 340 338 340 340 340 340 339 340 343 341
317 320 322 319 316 317 325 333 334 332 331 332 331 332 333 334 335 336 336 335 335 334 334 335 334 334 336 335 337 340 338 341 343 344 346 348 349 351 353 356 357 359 361 361 360 360 359 356 353 346 337 335 339 340 339 341 342 341 340 339 341 341 340
319 318 318 319 322 329 336 339 336 333 335 334 331 328 330 332 333 336 335 333 334 335 334 334 333 334 335 336 337 339 338 341 344 344 344 348 348 350 353 356 357 358 360 360 358 358 358 353 348 344 340 340 341 341 340 341 342 342 341 341 341 341 338
322 316 315 321 327 330 335 337 336 335 334 335 330 326 329 334 335 334 335 336 335 334 332 332 332 334 335 335 334 334 338 343 344 343 344 346 347 351 353 354 355 357 357 357 357 356 354 350 345 343 341 341 341 341 340 341 341 341 340 341 341 339 338
323 318 315 320 321 320 327 335 338 334 332 334 335 329 328 335 335 331 335 336 334 335 333 331 333 337 335 333 334 336 340 342 344 344 344 345 348 351 353 354 355 355 356 358 356 354 350 346 343 342 342 341 341 341 341 340 340 340 340 341 341 339 338
321 318 316 318 317 319 329 338 339 334 330 334 335 327 324 331 335 331 334 335 334 334 334 333 335 336 333 332 335 338 339 340 341 344 345 345 349 352 352 353 355 356 357 357 354 351 348 344 342 343 342 340 340 340 340 340 340 340 340 340 339 339 338
320 319 317 318 319 324 334 338 334 332 334 335 331 321 321 329 333 332 333 335 333 333 333 333 335 334 334 334 336 337 337 339 342 346 348 348 350 352 353 354 356 357 356 355 353 349 346 344 343 343 342 340 340 341 341 341 340 339 340 339 338 338 338
318 318 316 317 322 331 338 334 333 334 334 331 323 320 327 333 334 334 334 333 333 333 334 334 334 335 335 334 338 337 336 341 345 348 350 352 351 351 352 354 357 356 354 354 352 346 345 346 345 343 342 341 342 342 342 343 341 340 339 338 338 338 338
318 319 317 315 321 334 337 332 334 334 329 324 324 332 340 337 333 335 335 333 334 334 334 333 334 334 333 333 337 334 336 343 348 348 350 352 351 351 353 355 356 355 355 353 348 344 345 347 346 343 341 343 345 344 344 344 343 341 339 338 337 338 338
320 317 317 316 322 336 338 332 335 334 330 331 338 342 340 335 334 336 336 334 335 335 335 335 334 333 333 335 337 335 339 347 349 347 349 351 350 352 353 354 354 352 352 350 347 344 345 345 343 342 341 344 347 346 345 344 344 343 340 339 338 338 337
322 315 319 325 331 337 334 333 338 337 335 338 342 338 335 335 335 334 333 334 336 337 337 338 338 336 335 338 340 342 344 347 348 349 350 351 350 352 350 349 351 349 349 350 347 344 342 339 339 341 343 346 349 349 348 347 346 345 342 339 339 339 340
332 328 333 338 338 336 333 335 338 337 335 336 336 335 337 337 337 336 336 336 336 336 338 339 340 340 337 339 343 344 344 345 347 349 349 349 348 346 343 345 347 347 348 350 347 343 341 341 343 346 349 350 351 351 351 348 347 346 344 343 343 344 344
337 337 338 337 335 335 333 333 333 332 332 333 334 336 338 337 338 339 340 339 340 340 340 339 341 340 338 339 342 342 343 346 347 348 348 347 344 342 342 345 345 343 343 345 345 346 347 349 351 351 351 350 350 350 350 349 347 347 347 347 346 345 343
333 333 336 335 334 334 333 333 332 330 330 331 333 336 337 337 337 338 340 341 342 341 342 342 342 341 338 338 342 344 345 348 348 348 348 346 345 346 348 347 345 343 342 342 343 344 347 349 348 347 346 347 347 346 345 344 345 347 348 347 345 342 340
334 335 336 335 333 333 333 332 330 329 329 331 332 333 334 335 336 336 338 339 340 339 341 342 344 343 339 340 343 345 346 348 349 349 348 349 349 350 349 345 343 343 341 340 341 343 345 347 345 343 342 341 340 342 343 340 341 344 345 344 341 340 338
334 336 337 335 333 334 333 331 329 329 329 331 332 331 331 333 335 337 338 338 339 339 339 340 343 343 341 341 343 341 341 344 347 348 349 350 350 348 346 345 345 345 344 344 346 347 346 345 343 342 341 338 334 335 338 337 339 340 341 340 338 336 335
331 335 337 335 334 335 334 330 329 328 329 331 332 330 330 331 331 334 336 337 338 339 338 339 343 342 342 343 343 340 340 343 346 347 348 348 346 345 346 346 348 348 347 346 346 346 344 342 340 341 341 339 335 332 332 336 337 338 338 337 334 332 333
331 332 332 332 333 334 332 329 328 329 331 331 330 329 328 329 329 331 333 336 339 340 339 340 340 341 343 342 338 338 340 343 345 346 346 345 344 344 345 347 346 345 344 344 344 342 341 341 340 339 338 338 336 333 333 336 337 336 336 336 333 331 330
331 329 328 328 329 330 329 327 327 329 331 330 329 328 328 328 327 328 331 334 337 339 340 340 340 341 342 340 336 337 342 344 344 343 341 341 342 342 342 344 344 342 342 343 342 340 339 339 338 336 335 335 335 333 333 335 335 334 335 335 333 332 330
327 326 325 325 326 327 326 326 326 328 329 329 327 328 328 328 328 328 330 333 335 336 338 337 337 338 340 338 337 339 343 343 342 342 341 340 338 338 339 340 340 340 341 340 338 338 338 336 336 335 334 334 335 334 333 334 334 334 335 335 334 333 331
Wind_Speed
17 18 15 11 10 8 7 8 10 8 7 8 7 7 7 7 7 5 5 6 6 5 6 10 9 6 6 5 5 8 8 10 12 12 14 16 16 17 16 16 17 18 21 23 24 24 24 23 23 22 20 19 17 16 16 15 14 13 11 9 8 7 6
16 17 15 13 12 11 7 7 8 8 6 5 6 6 5 6 7 6 6 7 6 5 4 9 11 7 8 8 6 5 7 10 11 11 13 15 16 17 17 17 17 17 21 25 26 25 25 25 24 23 21 19 18 17 16 16 15 13 12 10 9 8 7
13 13 13 12 12 14 10 4 4 7 6 5 5 5 5 5 6 6 7 7 6 6 4 8 10 6 5 6 5 4 6 9 10 11 12 14 16 16 16 17 16 16 20 24 26 25 26 26 25 24 22 20 19 17 16 16 15 14 12 10 9 8 7
13 11 11 10 10 12 11 7 4 6 6 5 6 5 5 6 6 6 6 5 4 5 5 9 9 5 2 3 5 4 5 6 8 10 11 13 15 15 15 16 17 17 20 24 27 26 27 27 25 24 23 21 20 18 17 16 15 14 13 11 10 9 8
13 10 10 11 11 11 10 8 7 8 6 4 4 5 7 7 5 5 5 4 0 3 4 6 8 6 3 1 3 4 4 4 6 8 10 11 13 15 15 16 16 17 20 25 27 26 27 27 25 24 23 21 20 19 18 17 16 15 13 11 11 10 8
10 10 13 16 16 14 12 10 10 9 8 6 6 6 8 7 6 5 5 5 2 7 6 5 6 4 3 2 1 3 4 3 3 6 9 11 12 14 15 15 14 14 18 24 26 25 26 26 26 25 23 21 20 19 18 17 16 14 13 12 12 10 9
10 14 17 20 20 16 11 11 12 11 10 8 7 7 7 6 7 6 6 6 2 8 6 5 6 3 1 2 1 3 2 1 2 5 7 10 12 14 15 15 13 13 18 24 25 25 25 26 25 25 23 22 21 20 18 16 15 14 12 12 12 11 9
9 12 13 16 17 14 11 11 12 12 11 10 9 9 6 4 5 5 6 6 3 6 5 6 6 2 1 2 3 3 2 2 3 5 6 8 11 13 15 15 14 15 20 21 21 23 24 24 25 25 24 22 21 20 18 16 15 14 11 10 11 11 10
9 9 8 10 12 12 10 10 12 13 14 14 13 9 4 3 7 8 7 7 3 4 4 6 5 2 1 2 4 4 3 3 4 5 5 7 10 12 14 16 17 18 19 17 18 22 23 24 25 25 23 22 21 20 18 16 15 14 12 10 9 10 10
11 11 9 9 10 10 10 13 16 16 17 17 13 9 6 5 8 10 10 7 3 8 7 6 5 2 1 3 5 5 3 3 4 4 5 7 9 11 14 16 17 17 17 15 18 23 24 25 25 24 24 23 21 19 18 15 13 12 12 11 10 10 9
12 9 9 10 11 12 12 16 19 18 18 18 14 10 9 7 8 9 9 7 4 8 8 5 4 3 3 5 6 7 5 5 5 5 6 8 9 11 12 14 15 15 16 16 19 23 25 25 26 25 24 23 21 20 18 14 11 11 11 10 10 9 8
16 13 13 16 18 18 17 19 21 20 20 19 16 13 12 9 9 10 6 7 12 12 9 8 6 3 4 5 7 8 7 7 6 7 8 10 11 12 13 14 15 16 16 16 18 22 25 26 26 25 23 22 21 19 16 13 12 11 11 10 11 10 8
18 19 20 20 17 16 16 18 20 21 21 20 17 16 16 14 11 9 5 6 12 13 10 10 9 7 6 7 7 8 8 8 8 8 10 11 12 13 15 15 16 17 17 16 17 21 24 25 25 25 23 21 18 15 12 12 13 12 11 11 11 10 9
19 23 24 21 16 13 16 19 20 20 20 20 19 18 19 18 15 11 9 9 11 10 10 12 8 6 6 7 7 9 9 10 10 10 10 11 12 14 15 16 16 17 17 17 18 21 24 25 26 25 22 20 19 16 14 16 15 13 12 12 12 10 9
15 20 21 18 16 16 19 20 21 20 19 20 20 18 18 18 15 12 12 12 11 7 8 12 6 1 3 6 8 9 10 11 10 9 9 10 11 13 14 16 16 17 17 18 18 21 24 26 26 25 23 22 21 17 18 18 16 14 13 13 12 11 10
11 16 16 14 16 19 21 21 21 21 20 19 17 15 15 15 11 8 8 10 9 6 7 9 5 3 6 9 9 9 8 9 10 8 8 9 10 11 13 14 15 17 18 19 19 22 25 27 27 25 23 22 18 16 20 18 16 15 14 13 12 11 11
11 15 16 14 16 17 16 16 19 20 19 17 15 14 14 10 6 6 7 8 7 5 4 5 6 8 10 9 8 7 7 8 9 9 9 10 10 10 11 12 14 16 16 17 20 23 26 28 27 25 24 23 16 22 21 17 15 15 14 13 12 12 12
10 15 15 13 14 13 11 11 13 16 16 16 15 14 10 6 5 6 8 7 5 3 3 5 8 8 9 9 8 7 7 8 9 10 10 9 8 8 9 11 13 14 14 16 21 24 26 28 27 27 28 24 24 26 20 17 16 15 14 13 12 12 13
9 11 11 12 13 11 8 6 8 10 12 14 15 13 11 10 9 9 9 8 5 4 5 6 7 7 8 9 9 9 9 8 8 9 8 7 7 8 9 10 11 12 13 16 20 23 25 26 26 27 28 27 26 23 19 18 17 16 15 14 13 14 13
9 8 9 10 7 3 2 3 5 7 9 11 13 13 13 11 9 9 9 9 7 6 7 7 6 6 6 7 9 10 9 8 7 8 7 6 7 7 8 10 11 12 14 16 19 21 23 25 25 25 26 26 24 21 20 19 18 17 16 15 15 15 15
8 9 11 9 4 3 6 6 5 6 7 8 8 9 9 8 7 8 8 8 7 7 7 6 4 3 5 8 10 9 8 7 7 7 5 4 6 7 8 9 11 13 14 16 19 21 23 24 24 23 24 23 21 20 19 19 18 18 17 17 17 17 17
8 9 11 9 8 9 8 6 6 8 8 5 3 4 5 5 6 10 9 7 6 5 6 5 1 2 6 8 6 2 5 6 7 6 4 4 6 7 9 10 12 13 14 16 19 22 23 23 22 22 22 21 20 19 19 20 19 19 19 19 19 19 19
9 10 10 9 10 9 6 8 13 13 9 4 3 4 6 6 8 11 10 7 5 4 5 4 1 3 7 7 1 3 4 5 6 7 5 6 8 9 10 12 13 14 15 16 19 21 22 22 21 20 20 20 19 19 20 20 20 20 20 20 19 19 18
9 10 9 8 8 5 2 5 8 8 7 6 5 8 7 4 6 5 3 4 4 4 5 4 3 5 7 5 2 2 3 4 6 7 6 7 9 10 11 13 14 15 16 18 20 21 21 20 20 19 19 19 19 19 20 19 19 20 20 19 18 17 16
11 10 10 9 6 1 3 4 3 5 8 7 8 7 3 1 3 2 1 4 4 3 4 5 4 5 6 4 2 1 4 6 7 7 7 9 10 11 13 14 15 16 16 18 20 20 19 18 18 18 18 17 17 18 18 18 19 19 18 17 16 15 15
10 10 10 11 6 1 1 6 7 6 7 6 3 2 3 2 1 2 1 5 5 4 5 6 5 7 8 5 4 6 6 7 8 9 9 10 10 12 14 15 15 15 16 16 18 19 17 16 16 16 15 15 16 17 17 18 19 18 17 16 15 15 15
9 10 10 10 6 2 4 5 6 4 4 2 2 2 2 1 1 0 2 4 4 4 7 7 7 10 11 7 5 6 6 7 8 9 10 10 11 13 15 15 15 15 15 16 18 18 15 15 15 13 13 14 15 16 18 19 19 17 16 16 15 16 16
7 8 7 3 1 3 2 1 2 2 1 3 3 1 1 0 1 3 4 4 4 4 7 8 8 11 11 7 5 5 5 6 8 9 10 10 11 13 14 15 14 14 14 14 15 15 13 12 12 12 13 13 14 16 17 18 16 15 15 16 16 16 16
2 1 1 2 3 3 3 3 3 3 5 6 4 3 3 2 3 4 5 5 6 7 8 8 8 9 10 8 7 8 8 8 8 9 10 10 11 12 12 13 13 13 12 12 12 11 10 8 7 8 10 11 13 15 15 14 13 13 13 13 14 14 14
1 3 3 3 3 2 3 5 5 6 7 6 6 6 5 5 5 5 6 7 8 8 9 9 8 9 10 9 9 9 9 9 10 10 10 10 11 11 10 11 11 10 10 10 9 8 7 5 4 5 7 8 9 10 10 9 9 9 10 11 12 12 12
2 1 2 1 3 2 2 5 6 8 8 8 8 7 6 6 7 7 7 7 8 9 9 10 9 10 11 11 10 9 8 9 11 11 10 10 10 10 10 10 9 8 8 8 8 7 7 7 6 6 6 6 6 6 6 7 7 7 9 11 11 12 12
3 2 3 1 1 1 3 6 6 7 8 9 9 8 7 7 7 8 7 7 8 9 9 10 10 10 12 11 8 6 6 8 10 10 10 10 11 11 11 10 9 8 7 6 6 6 6 5 2 2 2 3 5 4 5 6 7 7 9 10 11 11 11
4 4 5 3 3 5 6 8 8 8 8 9 10 10 10 9 9 9 9 9 8 8 9 9 8 9 11 8 8 7 8 8 8 9 10 11 12 12 11 10 10 9 8 7 7 7 6 4 2 1 1 3 5 5 5 6 6 7 9 9 10 10 9
5 1 4 2 2 4 3 8 10 9 8 8 9 10 10 11 11 11 11 11 9 7 8 8 6 7 7 5 7 10 10 7 7 8 11 11 11 12 12 11 11 11 10 10 9 8 6 5 3 2 1 1 4 6 6 3 3 6 8 9 9 10 10
1 5 7 5 4 3 4 8 9 8 7 7 8 10 11 11 12 11 11 12 10 7 6 6 6 8 6 5 6 9 7 9 9 9 10 10 11 11 12 12 12 12 12 11 10 9 7 6 5 3 2 1 2 4 3 2 3 6 8 9 9 11 12
2 4 7 6 5 6 7 9 9 6 5 7 8 10 11 11 12 12 11 11 11 9 5 2 4 7 4 4 7 5 6 9 10 10 11 11 12 12 12 12 13 13 12 11 10 9 7 6 5 3 1 1 2 3 2 3 5 7 8 10 11 12 13
5 5 7 6 6 7 9 9 8 5 5 7 9 10 11 12 12 13 12 10 10 10 8 4 2 3 4 7 8 4 8 10 11 12 12 11 12 11 11 13 13 12 12 11 9 8 7 5 4 2 1 1 1 2 3 3 5 6 8 9 11 11 11
Wind_Direction
190 207 220 201 210 217 185 205 228 222 227 241 250 251 248 259 271 248 213 230 238 235 195 176 173 173 175 171 206 215 200 204 216 206 193 196 199 195 188 186 185 184 187 188 180 176 176 175 175 174 170 169 170 172 176 177 179 182 183 186 189 192 202
192 206 219 204 220 239 208 194 214 210 222 260 275 263 225 223 250 250 236 241 234 242 233 160 154 176 184 171 186 208 198 201 214 215 203 198 199 197 190 186 183 181 187 188 181 178 178 176 175 173 170 171 172 175 178 179 182 185 184 188 191 192 202
186 197 218 208 215 240 250 257 229 217 213 218 234 250 246 226 239 251 237 234 241 246 213 152 155 180 185 160 159 201 213 203 209 218 209 201 201 198 190 188 184 182 189 188 180 177 177 176 174 172 170 172 175 178 181 182 185 187 186 189 192 194 202
177 188 216 212 200 216 246 277 262 233 228 224 208 203 242 252 244 256 247 225 245 249 189 157 145 136 144 158 155 186 231 218 208 214 210 204 203 198 192 191 187 183 187 188 182 177 176 174 173 172 173 175 179 180 181 184 186 187 188 190 192 197 204
179 192 207 216 208 194 212 239 234 219 216 244 243 195 216 247 253 263 266 251 249 60 92 114 111 114 140 162 164 187 220 232 221 215 209 205 202 199 195 195 192 185 185 186 183 178 174 173 173 176 177 179 182 181 182 185 187 188 191 192 194 201 204
195 209 199 211 222 206 197 210 225 232 222 221 235 218 214 235 253 255 259 258 159 97 87 94 105 124 152 136 186 210 197 214 242 226 210 202 199 200 196 193 194 192 189 185 180 177 174 172 177 180 180 181 183 183 184 187 190 193 197 196 196 202 204
214 220 202 205 222 230 225 212 212 225 227 219 226 234 226 227 244 246 249 259 164 115 121 122 113 104 87 108 228 258 231 217 253 237 216 200 196 198 195 189 189 199 200 186 175 175 175 173 179 182 181 183 185 185 185 186 192 198 202 198 193 198 204
211 219 208 200 212 233 244 228 214 217 222 216 218 237 245 233 235 240 246 246 167 119 127 118 114 128 134 144 187 232 281 311 274 240 217 198 195 195 192 188 185 196 201 187 171 174 175 174 179 183 182 184 185 185 187 189 193 198 202 200 194 195 203
202 203 205 195 204 221 234 236 229 226 228 223 216 219 229 225 225 231 245 244 178 113 104 102 115 161 155 165 193 205 239 286 275 242 208 194 196 196 194 190 187 190 193 183 171 174 175 175 180 182 182 184 184 184 188 192 195 195 196 201 201 199 203
212 203 205 201 206 213 220 233 234 230 231 234 230 221 202 209 230 237 250 253 158 133 139 139 152 194 288 275 254 250 246 255 268 252 215 196 193 200 202 195 188 186 184 178 174 175 176 177 179 180 181 182 182 182 187 194 195 190 190 196 201 203 208
240 224 216 212 215 216 214 222 232 235 233 232 237 240 229 221 230 239 253 266 225 182 184 197 194 189 232 263 272 277 268 254 252 241 222 205 193 197 204 199 191 184 180 180 178 176 177 177 177 178 178 179 180 181 185 191 194 191 191 195 198 203 211
250 247 231 220 218 220 217 215 222 231 234 233 233 238 240 236 236 238 236 249 253 246 244 264 279 278 261 266 273 277 275 266 251 232 218 209 199 195 197 199 195 188 184 183 178 176 177 176 175 174 175 178 179 177 179 188 197 198 194 194 197 201 207
241 247 245 240 233 228 227 224 223 225 227 230 232 236 239 237 242 241 188 198 251 260 261 272 293 313 302 287 279 280 283 276 262 245 224 212 207 201 196 197 196 191 188 183 178 179 178 174 172 173 175 177 170 162 173 194 205 203 194 194 198 200 204
228 234 238 244 248 241 236 237 234 229 225 223 226 234 238 237 240 234 200 208 244 259 271 282 300 325 309 296 284 279 277 269 260 250 235 223 217 209 200 197 196 193 190 185 182 182 179 176 174 173 173 165 149 152 183 202 205 202 194 195 198 200 206
235 235 232 232 242 244 242 244 242 239 238 234 230 232 236 240 240 228 220 237 248 244 265 275 273 195 252 268 269 273 276 272 263 253 245 235 226 218 208 200 197 194 191 189 187 185 183 179 174 173 171 153 141 166 199 201 198 198 196 197 199 201 208
246 248 242 235 243 247 246 245 243 239 240 242 240 234 238 247 242 219 222 245 252 247 258 268 259 229 259 274 277 276 279 278 272 262 256 249 238 229 218 205 199 197 194 191 190 188 185 179 174 174 162 135 137 193 210 197 194 198 196 198 200 202 208
240 243 238 235 244 248 244 240 241 241 240 243 244 237 240 255 257 236 239 247 259 277 284 280 279 277 282 290 293 293 295 292 282 266 259 257 246 232 221 208 201 201 199 194 192 189 184 179 174 164 140 125 160 211 209 191 193 197 194 199 203 204 209
242 241 236 236 240 242 243 245 246 246 244 247 251 244 236 240 247 256 271 280 291 307 290 277 279 282 288 291 291 291 290 286 279 265 256 252 243 226 216 208 201 201 201 199 197 192 186 180 168 149 140 153 191 207 198 187 193 197 197 200 203 206 210
246 244 233 232 235 235 247 264 258 250 246 247 253 254 241 232 233 243 259 268 272 275 271 274 276 274 278 283 283 281 277 271 265 259 251 238 227 217 206 200 198 198 199 200 199 195 188 178 161 147 154 175 191 193 188 189 193 195 198 201 205 209 210
243 241 228 230 242 246 232 247 250 251 249 239 241 249 247 241 240 239 242 247 253 265 270 264 262 270 281 286 276 264 257 250 242 244 243 223 211 207 197 193 192 192 195 198 196 191 184 174 162 157 165 176 181 183 187 191 193 196 199 202 207 211 211
236 241 237 231 241 229 213 215 218 225 237 236 236 246 243 231 231 237 241 247 251 264 274 267 272 309 302 285 271 246 218 209 217 233 238 207 190 187 182 182 182 185 192 192 187 183 179 171 165 164 167 172 176 184 190 193 195 199 200 204 208 211 213
228 243 247 238 239 237 221 208 210 218 230 227 203 225 220 193 219 239 242 245 244 249 262 264 294 327 284 274 271 208 169 178 188 200 204 170 158 165 168 170 172 176 182 181 177 176 175 169 166 167 169 173 180 188 195 198 199 201 204 208 210 211 214
224 236 245 242 246 247 222 214 222 221 217 183 145 223 232 203 218 237 236 237 245 249 257 262 252 265 273 279 293 115 149 174 166 170 178 156 146 154 160 161 163 167 171 172 171 171 170 167 168 170 173 179 186 194 201 204 204 206 209 211 211 212 215
234 240 246 246 251 260 236 235 231 199 180 174 200 241 250 202 198 222 225 227 242 254 264 271 252 248 270 298 346 116 173 173 151 157 167 152 144 150 154 155 157 161 166 169 171 172 171 170 172 175 180 188 196 202 205 208 211 213 213 214 214 215 216
237 238 246 249 247 210 166 205 194 156 176 203 226 248 287 97 150 145 170 238 253 268 271 269 262 263 271 291 331 270 203 168 149 158 160 148 149 153 151 150 153 160 168 174 176 175 172 173 177 181 188 198 206 209 210 213 218 219 218 216 214 214 216
241 238 248 250 250 359 216 199 176 171 202 218 235 304 1 43 118 105 217 264 286 305 292 288 291 288 282 271 263 253 221 170 156 161 154 149 153 148 143 147 156 164 169 174 177 177 175 179 185 190 197 207 215 217 216 218 221 221 219 216 212 213 218
244 240 248 251 245 280 270 212 164 172 226 225 71 45 43 80 72 35 242 262 290 302 295 297 294 285 282 279 267 251 214 167 161 160 152 155 155 144 144 154 163 167 168 173 179 180 181 187 191 200 213 219 223 227 226 225 224 222 217 215 214 214 218
256 245 248 264 158 158 197 171 120 132 80 56 52 359 322 317 279 274 260 263 288 297 293 293 288 281 278 272 261 244 203 173 165 156 152 155 153 150 155 157 160 164 165 172 182 185 190 199 203 210 222 227 228 232 235 233 230 226 223 221 216 214 214
316 245 134 95 97 125 134 111 96 94 81 62 30 350 336 330 319 315 307 301 301 297 290 286 281 275 266 247 230 222 204 182 166 156 155 154 151 156 158 153 158 166 164 168 181 188 198 215 214 205 214 225 230 233 238 241 237 231 228 222 212 208 204
91 93 103 114 106 99 114 109 87 60 56 48 29 16 359 345 342 335 324 318 312 303 293 283 273 267 261 243 224 216 201 177 162 155 150 146 147 150 143 139 154 168 169 174 179 177 182 201 210 205 209 223 235 239 244 246 239 229 222 216 211 210 205
198 223 263 129 95 68 69 85 71 47 36 31 27 17 357 347 340 328 323 320 306 295 285 272 262 260 256 239 218 206 192 173 161 153 145 139 140 138 129 127 139 152 162 174 178 173 176 189 211 222 216 219 236 244 247 245 237 225 221 220 218 216 209
216 181 202 214 110 113 83 67 53 33 22 18 20 14 0 351 338 326 325 313 293 288 282 268 259 259 249 227 198 190 194 179 161 149 142 137 132 128 125 125 130 136 143 154 160 158 160 162 179 228 247 262 264 256 253 256 247 228 218 215 214 211 207
245 167 160 176 210 182 126 73 44 22 12 9 10 10 6 1 352 342 332 316 300 292 285 276 267 261 247 207 169 185 207 191 159 139 132 130 127 123 121 121 121 121 122 124 123 119 115 108 93 76 332 302 294 281 273 269 247 219 210 208 209 209 209
265 125 89 40 281 207 113 50 27 14 8 4 3 5 7 5 357 347 333 323 318 308 305 311 304 272 250 190 179 205 201 165 135 127 125 127 128 126 124 121 117 115 115 118 120 116 112 111 107 104 96 348 318 303 293 276 220 211 214 214 217 224 228
311 55 47 22 351 339 11 12 4 1 4 2 357 358 1 358 351 345 338 330 325 321 330 347 323 283 248 190 214 229 185 136 131 135 135 136 136 134 131 127 123 121 122 122 122 120 119 120 116 107 98 66 349 321 310 278 241 238 230 224 235 251 254
345 48 39 20 352 335 334 339 340 347 9 7 353 350 351 347 341 340 338 329 320 311 302 302 319 311 288 231 239 231 149 138 145 147 147 149 146 143 141 135 130 129 127 124 122 121 118 116 112 101 79 65 5 330 306 265 262 257 245 239 249 260 263
326 5 17 5 335 318 316 315 313 328 13 6 346 339 340 336 332 331 329 322 314 302 286 264 281 319 296 267 259 209 153 155 155 147 147 150 148 146 144 138 134 131 127 122 120 118 117 114 111 107 112 124 33 325 303 276 271 268 257 255 261 267 271